Regional Weather Roundup
Issued by NWS State College, PA

Home | Current Version | Previous Version | Graphics & Text | Print | Product List | Glossary Off
Versions: 1 2 3 4 5 6 7 8 9 10 11 12 13 14 15 16 17 18 19 20 21 22 23 24 25 26 27 28 29 30 31 32 33 34 35 36 37 38 39 40 41 42 43 44 45 46 47 48 49 50

000
ASUS41 KCTP 270703
RWRCTP

REGIONAL WEATHER ROUNDUP
NATIONAL WEATHER SERVICE STATE COLLEGE PA
200 AM EST SAT DEC 27 2014

Note: "fair" indicates few or no clouds below 12,000 feet with no
significant weather and/or obstructions to visibility.

* = STATION THAT DOES NOT REPORT PRECIPITATION /E.G. RAIN...SNOW...ETC/
    THUNDER OR FOG.

PAZ002>004-007>009-013>016-020>023-029>032-270800-
WESTERN PENNSYLVANIA

CITY           SKY/WX    TMP DP  RH WIND       PRES   REMARKS
ERIE           PTCLDY    43  32  65 S13       30.16R
MEADVILLE      PTCLDY    39  31  72 SW5       30.15S
FRANKLIN*      PTCLDY    37  28  70 SW5       30.18S
NEW CASTLE       N/A     39  32  76 CALM      30.20R
BEAVER COUNTY  NOT AVBL
BUTLER*        MOCLDY    37  30  75 S3        30.21R
PITTSBURGH INT CLOUDY    39  30  70 CALM      30.18S
PITTSBURGH     MOCLDY    39  27  62 S7        30.19S
INDIANA*       CLEAR     30  28  93 CALM      30.24R
LATROBE        MOCLDY    32  28  86 CALM      30.22S
WASHINGTON CO* NOT AVBL
$$

PAZ004>006-010>012-017>019-024>028-033>037-041-042-045-046-049>053-270800-
CENTRAL PENNSYLVANIA

CITY           SKY/WX    TMP DP  RH WIND       PRES   REMARKS
BRADFORD       PTCLDY    37  29  72 CALM      30.16R
DUBOIS         PTCLDY    37  29  72 CALM      30.18R
CLEARFIELD     PTCLDY    29  27  92 CALM      30.19R
JOHNSTOWN      PTCLDY    37  23  56 W7        30.17F
ALTOONA        MOCLDY    34  26  72 CALM      30.20R
STATE COLLEGE  PTCLDY    36  29  76 W5        30.21R
WILLIAMSPORT   CLOUDY    30  27  88 NW5       30.23R
SELINSGROVE    MOCLDY    28  25  88 CALM      30.23S
FT INDIANTOWN  MOCLDY    28  27  94 S2        30.24R
CAPITAL CITY   MOCLDY    30  27  88 CALM      30.24R
HARRISBURG     MOCLDY    30  28  92 CALM      30.24R
YORK           PTCLDY    28  26  92 CALM      30.23R
$$

PAZ038>040-043-044-047-048-054-055-060>062-067>071-270800-
EASTERN PENNSYLVANIA

CITY           SKY/WX    TMP DP  RH WIND       PRES   REMARKS
SCRANTON       PTCLDY    34  28  79 SW8       30.21R
MOUNT POCONO   CLEAR     33  26  75 NW7       30.16S
ALLENTOWN      PTCLDY    30  26  85 CALM      30.22R FOG
QUAKERTOWN*    NOT AVBL
READING        MOCLDY    30  27  88 CALM      30.22S
LANCASTER      MOCLDY    29  25  85 CALM      30.24R
COATESVILLE    MOSUNNY   32  32 100 W6        30.23S
POTTSTOWN      PTCLDY    28  26  92 CALM      30.24S
BLUE BELL      PTCLDY    32  32 100 CALM      30.23R
DOYLESTOWN     PTCLDY    34  30  85 SW3       30.22R
WILLOW GROVE   NOT AVBL
NORTH PHILA    CLEAR     37  29  72 W5        30.24S
PHILADELPHIA   MOCLDY    36  31  82 W5        30.25R
$$


USA.gov is the U.S. government's official web portal to all federal, state and local government web resources and services.